Date String (YYYY-MM-DD hh:mm:ss) UTC,Instrument flags,Ambient pressure (hPa),Sample flow (lpm),Bypass flow (lpm),Sample temperature (°C),Ambient temperature (°C),ASC tube jacket temperature (°C),LED temperature (°C),Box temperature (°C),Sample RH (%),Mass concentration (μg/m³),Mass concentration (μg/m³)
DateTimeUTC,F1_M11,P_M11,Q1_M11,Q2_M11,T1_M11,T2_M11,T3_M11,T4_M11,T5_M11,U1_M11,X2_M11,X0_M11
2021-08-18 15:00:00,,0824.5,4.99,0.00,29.8,28.4,00.0,38.9,31.6,22.7,0016.64,0026.06
2021-08-18 15:01:00,,0824.3,5.01,0.00,29.8,28.6,00.0,38.9,31.7,23.1,0016.51,0025.90
2021-08-18 15:02:00,,0824.3,4.99,0.00,29.9,28.7,00.0,38.9,31.7,22.6,0016.45,0026.06
2021-08-18 15:03:00,,0824.3,4.99,0.00,29.9,28.9,00.0,38.9,31.8,22.6,0016.49,0026.71
2021-08-18 15:04:00,,0824.3,5.02,0.00,29.9,29.0,00.0,38.9,31.8,21.4,0016.57,0026.75
2021-08-18 15:05:00,,0824.3,4.99,0.00,30.0,28.9,00.0,38.9,31.8,21.3,0016.57,0026.93
2021-08-18 15:06:00,,0824.2,5.00,0.00,29.9,27.6,00.0,38.9,31.4,21.4,0016.56,0027.73
2021-08-18 15:07:00,,0824.3,5.00,0.00,29.8,26.4,00.0,38.9,31.1,21.1,0016.54,0027.47
2021-08-18 15:08:00,,0824.2,5.01,0.00,29.7,26.7,00.0,38.9,31.1,21.7,0016.53,0026.73
2021-08-18 15:09:00,,0824.3,5.00,0.00,29.7,27.1,00.0,38.9,31.2,21.8,0016.52,0027.09
2021-08-18 15:10:00,,0824.5,5.00,0.00,29.6,27.5,00.0,38.8,31.3,21.8,0016.56,0027.34
2021-08-18 15:11:00,,0824.3,5.00,0.00,29.7,27.8,00.0,38.8,31.4,21.9,0016.55,0027.59
2021-08-18 15:12:00,,0824.3,5.00,0.00,29.7,28.1,00.0,38.8,31.5,22.3,0016.59,0028.11
2021-08-18 15:13:00,,0824.3,5.01,0.00,29.7,28.3,00.0,38.8,31.5,22.0,0016.59,0027.74
2021-08-18 15:14:00,,0824.4,4.99,0.00,29.8,28.5,00.0,38.8,31.6,22.3,0016.57,0027.69
2021-08-18 15:15:00,,0824.4,4.99,0.00,29.8,28.7,00.0,38.8,31.6,22.2,0016.51,0027.26
2021-08-18 15:16:00,,0824.4,5.00,0.00,29.8,28.8,00.0,38.8,31.7,22.5,0016.52,0027.40
2021-08-18 15:17:00,,0824.4,5.00,0.00,29.9,28.9,00.0,38.9,31.8,22.1,0016.51,0027.11
2021-08-18 15:18:00,,0824.4,5.00,0.00,29.9,29.0,00.0,38.9,31.8,21.5,0016.54,0027.47
2021-08-18 15:19:00,,0824.3,5.00,0.00,29.9,28.1,00.0,38.9,31.5,21.5,0016.53,0027.59
2021-08-18 15:20:00,,0824.3,5.00,0.00,29.8,26.5,00.0,38.9,31.1,21.6,0016.53,0027.32
2021-08-18 15:21:00,,0824.3,5.01,0.00,29.7,26.4,00.0,38.9,31.0,21.7,0016.54,0026.57
2021-08-18 15:22:00,,0824.2,5.00,0.00,29.6,26.8,00.0,38.8,31.1,22.2,0016.57,0025.58
2021-08-18 15:23:00,,0824.3,5.00,0.00,29.6,27.2,00.0,38.8,31.2,22.5,0016.66,0025.13
2021-08-18 15:24:00,,0824.3,5.00,0.00,29.6,27.6,00.0,38.8,31.3,22.7,0016.77,0025.65
2021-08-18 15:25:00,,0824.4,4.99,0.00,29.6,27.9,00.0,38.8,31.4,23.0,0016.82,0025.71
2021-08-18 15:26:00,,0824.4,5.01,0.00,29.7,28.2,00.0,38.8,31.5,23.1,0016.87,0025.93
2021-08-18 15:27:00,,0824.4,5.01,0.00,29.7,28.4,00.0,38.8,31.5,23.4,0016.93,0025.37
2021-08-18 15:28:00,,0824.4,4.99,0.00,29.8,28.6,00.0,38.8,31.6,23.2,0016.98,0025.18
2021-08-18 15:29:00,,0824.4,5.01,0.00,29.8,28.7,00.0,38.8,31.7,23.2,0017.03,0025.26
2021-08-18 15:30:00,,0824.5,4.98,0.00,29.9,28.7,00.0,38.8,31.7,23.7,0017.10,0025.84
2021-08-18 15:31:00,,0824.4,5.01,0.00,29.8,27.5,00.0,38.8,31.3,23.7,0017.14,0026.79
2021-08-18 15:32:00,,0824.4,5.00,0.00,29.6,26.3,00.0,38.8,30.9,23.6,0017.21,0028.56
2021-08-18 15:33:00,,0824.4,4.98,0.00,29.6,26.5,00.0,38.8,31.0,24.1,0017.29,0030.52
2021-08-18 15:34:00,,0824.5,5.00,0.00,29.5,26.9,00.0,38.7,31.1,25.0,0017.28,0031.34
2021-08-18 15:35:00,,0824.5,5.01,0.00,29.5,27.3,00.0,38.7,31.2,24.9,0017.26,0030.92
2021-08-18 15:36:00,,0824.4,5.00,0.00,29.5,27.6,00.0,38.7,31.3,24.5,0017.32,0031.59
2021-08-18 15:37:00,,0824.4,5.00,0.00,29.6,27.9,00.0,38.7,31.4,24.1,0017.37,0032.06
2021-08-18 15:38:00,,0824.4,5.01,0.00,29.6,28.2,00.0,38.7,31.4,24.1,0017.37,0032.19
2021-08-18 15:39:00,,0824.5,4.99,0.00,29.7,28.4,00.0,38.7,31.5,23.7,0017.38,0032.34
2021-08-18 15:40:00,,0824.4,5.01,0.00,29.7,28.6,00.0,38.7,31.6,23.9,0017.45,0032.78
2021-08-18 15:41:00,,0824.4,5.00,0.00,29.7,28.7,00.0,38.7,31.6,23.2,0017.49,0032.31
2021-08-18 15:42:00,,0824.9,4.99,0.00,29.8,28.8,00.0,38.8,31.7,22.5,0017.60,0031.50
2021-08-18 15:43:00,,0824.7,5.01,0.00,29.8,28.7,00.0,38.8,31.7,23.8,0017.60,0030.31
2021-08-18 15:44:00,,0825.0,4.99,0.00,29.8,27.3,00.0,38.8,31.2,24.6,0017.59,0028.84
2021-08-18 15:45:00,,0824.7,5.00,0.00,29.6,26.3,00.0,38.8,31.0,24.5,0017.69,0028.69
2021-08-18 15:46:00,,0824.6,4.99,0.00,29.6,26.7,00.0,38.7,31.1,24.4,0017.70,0029.73
2021-08-18 15:47:00,,0824.7,4.99,0.00,29.5,27.1,00.0,38.7,31.2,24.2,0017.67,0029.80
2021-08-18 15:48:00,,0824.6,5.00,0.00,29.5,27.5,00.0,38.7,31.2,24.6,0017.63,0029.81
2021-08-18 15:49:00,,0824.6,4.99,0.00,29.6,27.8,00.0,38.7,31.3,24.4,0017.61,0029.92
2021-08-18 15:50:00,,0824.6,5.01,0.00,29.6,28.1,00.0,38.7,31.4,24.1,0017.63,0029.83
2021-08-18 15:51:00,,0824.6,5.00,0.00,29.7,28.3,00.0,38.7,31.5,24.1,0017.57,0029.17
2021-08-18 15:52:00,,0824.6,5.00,0.00,29.7,28.5,00.0,38.7,31.6,23.2,0017.58,0029.56
2021-08-18 15:53:00,,0824.7,4.99,0.00,29.7,28.7,00.0,38.7,31.6,23.5,0017.49,0029.57
2021-08-18 15:54:00,,0824.7,5.00,0.00,29.8,28.7,00.0,38.7,31.7,22.9,0017.42,0029.45
2021-08-18 15:55:00,,0824.6,5.01,0.00,29.7,27.5,00.0,38.7,31.2,22.6,0017.35,0029.22
2021-08-18 15:56:00,,0824.6,5.01,0.00,29.6,26.3,00.0,38.7,30.9,23.1,0017.25,0030.27
2021-08-18 15:57:00,,0824.6,4.99,0.00,29.5,26.5,00.0,38.7,30.9,22.2,0017.20,0030.55
2021-08-18 15:58:00,,0824.6,5.00,0.00,29.5,26.9,00.0,38.7,31.1,22.1,0017.21,0030.08
2021-08-18 15:59:00,,0824.6,5.00,0.00,29.5,27.3,00.0,38.6,31.2,22.4,0017.24,0029.52
